FENGYUN 1C DEB, 36263

Orbit data source: Space-Track

FENGYUN 1C DEB, 36263 is space debris in SSO originally from a launch on Mon, 10 May 1999 UTC launched from the Taiyaun Space Center, China (TSC). Fengyun 1C debris stems from the Chinese weather satellite Fengyun-1C, which was intentionally destroyed by a Chinese anti-satellite missile in 2007. This event dramatically increased the amount of space debris, with thousands of trackable fragments posing hazards to satellites and human spaceflight. The Fengyun 1C debris cloud has become a focal point in discussions about space sustainability and the need for international regulations to prevent the creation of new debris.

Loading next visibility...
Identifier
36263, 1999-025DWQ
Orbit
SSO
Country
Flag of CNCN / PRC
Related business
Manufacturer
Unknown
Mission
Spacecraft
Bus & Motor
Unknown
Mass
Unknown
Launch date (UTC)
1999-05-10 (27 years ago)
Launch vehicle
Unknown
Launch site
Taiyaun Space Center, China (TSC)
Object type
Payload
Rocket body
Debris
Shape & HBR
Unknown shape, 0.1 m
Radar Cross Section
Small (<0.1 m²)

Expand to show TLE details & history
Last TLE update: 14 hours ago

TLE from 14 hours ago
0 FENGYUN 1C DEB
1 36263U 99025DWQ 25353.64568072  .00003967  00000-0  11248-2 0  9994
2 36263  99.0020 235.1146 0035830 244.0353 115.7144 14.45721747880858
Epoch: 2025-12-19T15:29Z
TLE epoch observation values (Epoch: 2025-12-19T15:29:46.814Z)
Latitude
0.00003°
Longitude
-85.81432°
Altitude
753.738 km
Speed
7.472 km/s
True Right ascension
15h 40m 27s
True Declination
0° 00' 00"
Sunlit
Object was in daylight at epoch
Visualization orbit readout
Latitude
Unknown
Longitude
Unknown
Altitude
Unknown
Speed
Unknown
Apparent Right ascension
Unknown
Apparent Declination
Unknown
Sunlit
N/A
Visualization observer readout
Local Sidereal Time
04:47:52
Azimuth
Unknown
Elevation
Unknown
Doppler factor
Unknown
Orbital elements
Apogee altitude
762.288 km
Perigee altitude
711.302 km
Semi-major axis
7,114.932 km
Eccentricity
0.00358
Inclination
99.002°
RAAN
235.1146°
Arg. of periapsis
244.0353°
True anomaly
116.0836°
Mean anomaly
115.7144°
Eccentric anomaly
115.89907°
Mean motion
3.61649 °/min
Orbital period
99.54 mins
BSTAR
0.0011248
Loading maneuver chart data...
Computing Atmospheric mass density...

Documentation

Showing up to 5 results
|